COSMOS 2242

Satellite information

Favourite Embed

Satellite Type and Status

PAYLOADIN ORBIT

Key statistics

Satellite COSMOS 2242 at a glance.

Uptime

11929

Days in orbit

Revolutions

≈ 15.0

Per day

Orbit

LEO

Low Earth Orbit

Inclination

82.5

Latest

Satellite identification and parameters

Extended collection of information and parameters for COSMOS 2242.

Object identification

Identified? True

Debris? False

Object name: COSMOS 2242

International designator: 1993-024A

Object number (NORAD): 22626

Object ID (CCSDS): 22626

Country: COMMONWEALTH OF INDEPENDENT STATES (CIS)

Current information (Y/N): Y

RCS size: LARGE

Orbital parameters

Period: 96.25 minutes

Inclination: 82.5195 deg

SMA: 6957.085 km

Apoapsis: 589.347 km

Periapsis: 568.553 km

RAAN: 350.2639 deg

Eccentricy: 0.00149442

Argument of periapsis: 235.9188 deg

Mean anomaly: 124.0617 deg

Mean motion: 14.96104107 rev/day

Mean motion (dot): 0.00003762 rev/day2

B* drag term: 0.00033166486 1/REarth

Two-line elements (TLE)

Creation date: Dec. 12, 2025, 10:14 a.m.

Reference frame: TEME

Reference center: EARTH

Epoch: Dec. 12, 2025, 7:13 a.m. UTC

TLE line 0: 0 COSMOS 2242

TLE line 1: 1 22626U 93024A 25346.30134806 .00003762 00000-0 33166-3 0 9991

TLE line 2: 2 22626 82.5195 350.2639 0014944 235.9188 124.0617 14.96104107767325

Live tracking on map

Real-time ground track for satellite COSMOS 2242.

In-orbit conjunctions

A list of the most updated potential collisions computed for object COSMOS 2242.

Target Orbit TCA Probability of collision Miss distance Type
CZ-4C DEB SSO 2025-08-29 22:10:38 0.0002231762 529.0 (m) DEBRIS
DMSP 5D-2 F13 DEB SSO 2025-08-14 06:20:44 0.0001073496 546.0 (m) DEBRIS
CZ-6A DEB LEO 2025-08-02 20:24:49 0.0004011846 208.0 (m) DEBRIS
OBJECT AY SSO 2025-05-17 11:54:31 0.0002432703 647.0 (m) UNKNOWN
FENGYUN 1C DEB SSO 2025-04-20 01:20:50 0.0001401641 456.0 (m) DEBRIS

Associated space launch

Tselina-R series ELINT satellite

COSMOS 2242 was lifted into orbit during the mission ‘Tsiklon-3 | Tselina-R 4’, on board a Tsiklon-3 space rocket.

The launch took place on April 16, 1993, 7:49 a.m. from 32/1.

For more information about the launch, click the button.

Launch to space Tsiklon-3 | Tselina-R 4
Tsiklon-3 | Tselina-R 4

Agency: N/A

Status: Launch Successful

Launch date: April 16, 1993, 7:49 a.m. UTC

Rocket: Tsiklon-3

Launch pad: 32/1

Location: Plesetsk Cosmodrome, Russian Federation

...

Latest news about this satellite

There are no fresh news available about this satellite. Check back as we update our databases every day.


Newsletter sign-up

Weekly statistics, charts and insights to help you stay on top of the space industry.